Regional Weather Roundup
Issued by NWS

Current Version | Previous Version | Text Only | Print | Product List | Glossary On
Versions: 1 2 3 4 5 6 7 8 9 10 11 12 13 14 15 16 17 18 19 20 21 22 23 24 25 26 27 28 29 30 31 32 33 34 35 36 37 38 39 40 41 42 43 44 45 46 47 48 49 50
000
ASUS44 KLIX 281910
RWRLA
LOUISIANA WEATHER ROUNDUP
NATIONAL WEATHER SERVICE NEW ORLEANS LA
100 PM CST FRI NOV 28 2014

NOTE: "FAIR" INDICATES FEW OR NO CLOUDS BELOW 12,000 FEET WITH NO
      SIGNIFICANT WEATHER AND/OR OBSTRUCTIONS TO VISIBILITY.
      SKY/WX - SKY CONDITION AND SIGNIFICANT WEATHER.
      TMP - AIR TEMPERATURE.    DP   - DEWPOINT TEMPERATURE.
      RH  - RELATIVE HUMIDITY.  PRES - PRESSURE.
      HX  - HEAT INDEX.         WCI  - WIND CHILL INDEX.

*  THESE STATIONS ARE NOT NWS OR FAA STATIONS AND ARE NOT UNDER
   NWS QUALITY CONTROL.

LAZ040-048-061>063-065-066-069-282000-
SOUTHEAST LOUISIANA

CITY           SKY/WX    TMP DP  RH WIND       PRES   REMARKS
N.O. AUDUBON     N/A     59  42  52 MISG        N/A
N.O. INTL ARPT MOSUNNY   59  37  44 E3        30.34F
N.O. LAKEFRONT SUNNY     56  40  55 E8        30.36F
N.O. DOWNTOWN* FAIR      55  39  54 NE8       30.35F
SLIDELL        SUNNY     60  29  30 VRB5      30.34F
BATON ROUGE    SUNNY     59  32  36 VRB6      30.33F
BOOTHVILLE     SUNNY     59  47  64 NE8       30.35F
BELLE CHASSE   SUNNY     59  37  44 VRB5      30.34F
BOGALUSA*        N/A     60  25  26 SE3       30.36F
NEW ROADS*     FAIR      59  31  35 SE8       30.33F
GONZALES*      FAIR      60  34  37 S6        30.33F
HAMMOND*       SUNNY     59  25  27 SE6       30.36F
HOUMA*         SUNNY     61  43  51 N5        30.34F
PORT FOURCHON* CLEAR     59  46  63 E9        30.37F

$$

LAZ041-044-053-054-282000-
SOUTHWEST LOUISIANA

CITY           SKY/WX    TMP DP  RH WIND       PRES   REMARKS
LAKE CHARLES   SUNNY     64  49  57 SE9       30.29F
LAFAYETTE      SUNNY     61  35  37 S6        30.32F
PATTERSON      SUNNY     63  41  45 SE7       30.35F
SALT POINT       N/A     64  47  53 SE8       30.32F
NEW IBERIA     SUNNY     64  39  39 SE7       30.32F
CHENAULT AIRPK SUNNY     63  46  55 SE12      30.31F

$$

LAZ027-028-282000-
CENTRAL LOUISIANA

CITY           SKY/WX    TMP DP  RH WIND       PRES   REMARKS
FORT POLK      SUNNY     61  43  52 S8        30.27F
ALEXANDRIA INT SUNNY     59  37  44 SE7       30.28F
ALEXANDRIA     SUNNY     60  35  39 S8        30.30F

$$

LAZ001-002-282000-
NORTHWEST LOUISIANA

CITY           SKY/WX    TMP DP  RH WIND       PRES   REMARKS
SHREVEPORT     SUNNY     63  38  39 S10       30.22F
BARKSDALE AFB  SUNNY     62  35  36 S13       30.23F
DTN SHREVEPORT SUNNY     61  35  37 S13       30.23F

$$

LAZ014-016-282000-
NORTHEAST LOUISIANA

CITY           SKY/WX    TMP DP  RH WIND       PRES   REMARKS
MONROE         SUNNY     58  35  42 S7        30.28F
TALLULAH       SUNNY     59  25  27 S8        30.31F

$$



USA.gov is the U.S. government's official web portal to all federal, state and local government web resources and services.